Time,TemperatureF,DewpointF,PressureIn,WindDirection,WindDirectionDegrees,WindSpeedMPH,WindSpeedGustMPH,Humidity,HourlyPrecipIn,Conditions,Clouds,dailyrainin,SoftwareType,DateUTC
2013-08-16 00:00:00,56.5,52.7,30.02,West,276,3.0,-999.0,87,0.00,,,0.00,Wunderground v.1.15,2013-08-16 04:00:00,
2013-08-16 00:05:00,56.4,52.6,30.02,West,276,3.0,-999.0,87,0.00,,,0.00,Wunderground v.1.15,2013-08-16 04:05:00,
2013-08-16 00:10:00,56.5,52.7,30.02,West,276,2.0,-999.0,87,0.00,,,0.00,Wunderground v.1.15,2013-08-16 04:10:00,
2013-08-16 00:20:00,56.6,52.8,30.02,West,276,3.0,-999.0,87,0.00,,,0.00,Wunderground v.1.15,2013-08-16 04:20:00,
2013-08-16 00:25:00,56.6,52.8,30.02,West,276,3.0,-999.0,87,0.00,,,0.00,Wunderground v.1.15,2013-08-16 04:25:00,
2013-08-16 00:30:00,56.6,52.8,30.01,West,276,3.0,-999.0,87,0.00,,,0.00,Wunderground v.1.15,2013-08-16 04:30:00,
2013-08-16 00:35:00,56.7,52.9,30.01,West,276,3.0,-999.0,87,0.00,,,0.00,Wunderground v.1.15,2013-08-16 04:35:00,
2013-08-16 00:40:00,56.8,53.0,30.01,West,276,3.0,-999.0,87,0.00,,,0.00,Wunderground v.1.15,2013-08-16 04:40:00,
2013-08-16 00:50:00,57.0,53.2,30.01,West,276,4.0,-999.0,87,0.00,,,0.00,Wunderground v.1.15,2013-08-16 04:50:00,
2013-08-16 00:55:00,57.3,53.5,30.01,West,276,4.0,-999.0,87,0.00,,,0.00,Wunderground v.1.15,2013-08-16 04:55:00,
2013-08-16 01:00:00,57.3,53.1,30.01,West,276,4.0,-999.0,86,0.00,,,0.00,Wunderground v.1.15,2013-08-16 05:00:00,
2013-08-16 01:10:00,57.0,52.9,30.01,West,276,3.0,-999.0,86,0.00,,,0.00,Wunderground v.1.15,2013-08-16 05:10:00,
2013-08-16 01:15:00,56.1,52.3,30.01,West,276,3.0,-999.0,87,0.00,,,0.00,Wunderground v.1.15,2013-08-16 05:15:00,
2013-08-16 01:25:00,55.4,52.2,30.01,West,276,5.0,-999.0,89,0.00,,,0.00,Wunderground v.1.15,2013-08-16 05:25:00,
2013-08-16 01:30:00,55.3,52.1,30.01,West,276,5.0,-999.0,89,0.00,,,0.00,Wunderground v.1.15,2013-08-16 05:30:00,
2013-08-16 01:35:00,55.3,52.4,30.01,West,276,4.0,-999.0,90,0.00,,,0.00,Wunderground v.1.15,2013-08-16 05:35:00,
2013-08-16 01:40:00,55.3,52.4,30.01,West,276,4.0,-999.0,90,0.00,,,0.00,Wunderground v.1.15,2013-08-16 05:40:00,
2013-08-16 01:45:00,55.3,52.4,30.01,West,276,4.0,-999.0,90,0.00,,,0.00,Wunderground v.1.15,2013-08-16 05:45:00,
2013-08-16 01:55:00,55.0,52.1,30.01,West,276,5.0,-999.0,90,0.00,,,0.00,Wunderground v.1.15,2013-08-16 05:55:00,
2013-08-16 02:00:00,54.8,51.9,30.02,West,276,5.0,-999.0,90,0.00,,,0.00,Wunderground v.1.15,2013-08-16 06:00:00,
2013-08-16 02:10:00,54.7,51.8,30.01,West,276,5.0,-999.0,90,0.00,,,0.00,Wunderground v.1.15,2013-08-16 06:10:00,
2013-08-16 02:15:00,54.6,51.7,30.01,West,276,5.0,-999.0,90,0.00,,,0.00,Wunderground v.1.15,2013-08-16 06:15:00,
2013-08-16 02:20:00,54.6,52.0,30.01,West,276,5.0,-999.0,91,0.00,,,0.00,Wunderground v.1.15,2013-08-16 06:20:00,
2013-08-16 02:30:00,54.6,52.0,30.01,West,276,4.0,-999.0,91,0.00,,,0.00,Wunderground v.1.15,2013-08-16 06:30:00,
2013-08-16 02:35:00,54.5,51.9,30.01,West,276,3.0,-999.0,91,0.00,,,0.00,Wunderground v.1.15,2013-08-16 06:35:00,
2013-08-16 02:45:00,54.5,51.9,30.01,West,276,3.0,-999.0,91,0.00,,,0.00,Wunderground v.1.15,2013-08-16 06:45:00,
2013-08-16 02:50:00,54.3,51.7,30.01,West,276,3.0,-999.0,91,0.00,,,0.00,Wunderground v.1.15,2013-08-16 06:50:00,
2013-08-16 02:55:00,54.2,51.6,30.01,West,276,3.0,-999.0,91,0.00,,,0.00,Wunderground v.1.15,2013-08-16 06:55:00,
2013-08-16 03:00:00,54.2,51.6,30.01,West,276,3.0,-999.0,91,0.00,,,0.00,Wunderground v.1.15,2013-08-16 07:00:00,
2013-08-16 03:10:00,54.2,51.6,30.01,West,276,4.0,-999.0,91,0.00,,,0.00,Wunderground v.1.15,2013-08-16 07:10:00,
2013-08-16 03:15:00,54.0,51.4,30.01,West,276,4.0,-999.0,91,0.00,,,0.00,Wunderground v.1.15,2013-08-16 07:15:00,
2013-08-16 03:20:00,53.9,51.3,30.01,West,276,4.0,-999.0,91,0.00,,,0.00,Wunderground v.1.15,2013-08-16 07:20:00,
2013-08-16 05:25:00,52.7,50.4,30.03,West,276,5.0,-999.0,92,0.00,,,0.00,Wunderground v.1.15,2013-08-16 09:25:00,
2013-08-16 05:30:00,52.8,50.8,30.03,West,276,5.0,-999.0,93,0.00,,,0.00,Wunderground v.1.15,2013-08-16 09:30:00,
2013-08-16 05:35:00,52.9,50.6,30.03,West,276,5.0,-999.0,92,0.00,,,0.00,Wunderground v.1.15,2013-08-16 09:35:00,
2013-08-16 05:45:00,53.3,51.0,30.03,West,276,6.0,-999.0,92,0.00,,,0.00,Wunderground v.1.15,2013-08-16 09:45:00,
2013-08-16 05:50:00,53.5,51.2,30.03,West,276,6.0,-999.0,92,0.00,,,0.00,Wunderground v.1.15,2013-08-16 09:50:00,
2013-08-16 05:55:00,53.5,50.9,30.03,West,276,7.0,-999.0,91,0.00,,,0.00,Wunderground v.1.15,2013-08-16 09:55:00,
2013-08-16 06:00:00,53.2,50.6,30.03,West,276,7.0,-999.0,91,0.00,,,0.00,Wunderground v.1.15,2013-08-16 10:00:00,
2013-08-16 06:10:00,53.2,50.6,30.03,West,276,6.0,-999.0,91,0.00,,,0.00,Wunderground v.1.15,2013-08-16 10:10:00,
2013-08-16 06:20:00,53.5,50.9,30.04,West,276,6.0,-999.0,91,0.00,,,0.00,Wunderground v.1.15,2013-08-16 10:20:00,
2013-08-16 06:25:00,53.7,51.1,30.04,West,276,6.0,-999.0,91,0.00,,,0.00,Wunderground v.1.15,2013-08-16 10:25:00,
2013-08-16 06:30:00,53.8,51.2,30.04,West,276,6.0,-999.0,91,0.00,,,0.00,Wunderground v.1.15,2013-08-16 10:30:00,
2013-08-16 06:35:00,54.0,51.4,30.04,West,276,6.0,-999.0,91,0.00,,,0.00,Wunderground v.1.15,2013-08-16 10:35:00,
2013-08-16 06:40:00,54.1,51.2,30.04,West,276,6.0,-999.0,90,0.00,,,0.00,Wunderground v.1.15,2013-08-16 10:40:00,
2013-08-16 06:45:00,54.1,51.2,30.04,West,276,6.0,-999.0,90,0.00,,,0.00,Wunderground v.1.15,2013-08-16 10:45:00,
2013-08-16 06:55:00,54.0,51.1,30.05,West,276,7.0,-999.0,90,0.00,,,0.00,Wunderground v.1.15,2013-08-16 10:55:00,
2013-08-16 07:00:00,53.9,51.3,30.05,West,276,7.0,-999.0,91,0.00,,,0.00,Wunderground v.1.15,2013-08-16 11:00:00,
2013-08-16 07:10:00,54.4,51.5,30.05,West,276,7.0,-999.0,90,0.00,,,0.00,Wunderground v.1.15,2013-08-16 11:10:00,
2013-08-16 07:15:00,54.5,51.9,30.05,West,276,6.0,-999.0,91,0.00,,,0.00,Wunderground v.1.15,2013-08-16 11:15:00,
2013-08-16 07:25:00,55.1,52.2,30.05,West,276,6.0,-999.0,90,0.00,,,0.00,Wunderground v.1.15,2013-08-16 11:25:00,
2013-08-16 07:30:00,55.8,52.6,30.05,West,276,6.0,-999.0,89,0.00,,,0.00,Wunderground v.1.15,2013-08-16 11:30:00,
2013-08-16 07:35:00,55.7,52.5,30.05,West,276,6.0,-999.0,89,0.00,,,0.00,Wunderground v.1.15,2013-08-16 11:35:00,
2013-08-16 07:40:00,55.6,52.7,30.05,West,276,6.0,-999.0,90,0.00,,,0.00,Wunderground v.1.15,2013-08-16 11:40:00,
2013-08-16 07:45:00,55.5,52.6,30.05,West,276,6.0,-999.0,90,0.00,,,0.00,Wunderground v.1.15,2013-08-16 11:45:00,
2013-08-16 07:50:00,55.8,52.9,30.06,West,276,5.0,-999.0,90,0.00,,,0.00,Wunderground v.1.15,2013-08-16 11:50:00,
2013-08-16 08:00:00,56.6,53.4,30.06,West,276,6.0,-999.0,89,0.00,,,0.00,Wunderground v.1.15,2013-08-16 12:00:00,
2013-08-16 08:10:00,57.1,54.2,30.06,West,276,5.0,-999.0,90,0.00,,,0.00,Wunderground v.1.15,2013-08-16 12:10:00,
2013-08-16 08:15:00,57.3,54.1,30.06,West,276,5.0,-999.0,89,0.00,,,0.00,Wunderground v.1.15,2013-08-16 12:15:00,
2013-08-16 08:20:00,57.7,54.5,30.06,West,276,5.0,-999.0,89,0.00,,,0.00,Wunderground v.1.15,2013-08-16 12:20:00,
2013-08-16 08:30:00,58.5,55.0,30.06,West,276,4.0,-999.0,88,0.00,,,0.00,Wunderground v.1.15,2013-08-16 12:30:00,
2013-08-16 08:35:00,58.7,55.2,30.06,West,276,3.0,-999.0,88,0.00,,,0.00,Wunderground v.1.15,2013-08-16 12:35:00,
2013-08-16 08:40:00,58.8,55.3,30.06,West,276,3.0,-999.0,88,0.00,,,0.00,Wunderground v.1.15,2013-08-16 12:40:00,
2013-08-16 08:45:00,59.3,55.7,30.06,West,276,3.0,-999.0,88,0.00,,,0.00,Wunderground v.1.15,2013-08-16 12:45:00,
2013-08-16 08:50:00,59.7,55.8,30.06,West,276,3.0,-999.0,87,0.00,,,0.00,Wunderground v.1.15,2013-08-16 12:50:00,
2013-08-16 08:55:00,60.1,56.2,30.06,West,276,3.0,-999.0,87,0.00,,,0.00,Wunderground v.1.15,2013-08-16 12:55:00,
2013-08-16 09:00:00,60.5,56.3,30.06,West,276,3.0,-999.0,86,0.00,,,0.00,Wunderground v.1.15,2013-08-16 13:00:00,
2013-08-16 09:10:00,61.3,56.4,30.06,West,276,3.0,-999.0,84,0.00,,,0.00,Wunderground v.1.15,2013-08-16 13:10:00,
2013-08-16 09:15:00,61.6,57.0,30.06,West,276,3.0,-999.0,85,0.00,,,0.00,Wunderground v.1.15,2013-08-16 13:15:00,
2013-08-16 09:20:00,62.0,57.4,30.06,West,276,2.0,-999.0,85,0.00,,,0.00,Wunderground v.1.15,2013-08-16 13:20:00,
2013-08-16 09:25:00,62.3,57.7,30.06,West,276,2.0,-999.0,85,0.00,,,0.00,Wunderground v.1.15,2013-08-16 13:25:00,
2013-08-16 09:35:00,62.7,58.1,30.06,West,276,3.0,-999.0,85,0.00,,,0.00,Wunderground v.1.15,2013-08-16 13:35:00,
2013-08-16 09:40:00,63.0,58.1,30.06,West,276,3.0,-999.0,84,0.00,,,0.00,Wunderground v.1.15,2013-08-16 13:40:00,
2013-08-16 09:45:00,62.9,57.7,30.06,West,276,3.0,-999.0,83,0.00,,,0.00,Wunderground v.1.15,2013-08-16 13:45:00,
2013-08-16 09:50:00,63.1,58.2,30.06,West,276,2.0,-999.0,84,0.00,,,0.00,Wunderground v.1.15,2013-08-16 13:50:00,
2013-08-16 09:55:00,63.4,58.1,30.06,West,276,2.0,-999.0,83,0.00,,,0.00,Wunderground v.1.15,2013-08-16 13:55:00,
2013-08-16 10:00:00,63.5,58.2,30.06,West,276,3.0,-999.0,83,0.00,,,0.00,Wunderground v.1.15,2013-08-16 14:00:00,
2013-08-16 10:10:00,64.0,58.4,30.06,West,270,3.0,-999.0,82,0.00,,,0.00,Wunderground v.1.15,2013-08-16 14:10:00,
2013-08-16 10:15:00,64.3,58.0,30.06,West,270,4.0,-999.0,80,0.00,,,0.00,Wunderground v.1.15,2013-08-16 14:15:00,
2013-08-16 10:20:00,64.6,58.6,30.06,West,270,2.0,-999.0,81,0.00,,,0.00,Wunderground v.1.15,2013-08-16 14:20:00,
2013-08-16 10:25:00,65.0,59.0,30.07,West,270,2.0,-999.0,81,0.00,,,0.00,Wunderground v.1.15,2013-08-16 14:25:00,
2013-08-16 10:30:00,64.9,58.6,30.06,West,268,3.0,-999.0,80,0.00,,,0.00,Wunderground v.1.15,2013-08-16 14:30:00,
2013-08-16 10:35:00,64.9,58.6,30.06,WSW,257,3.0,-999.0,80,0.00,,,0.00,Wunderground v.1.15,2013-08-16 14:35:00,
2013-08-16 10:40:00,65.0,58.3,30.07,WSW,257,3.0,-999.0,79,0.00,,,0.00,Wunderground v.1.15,2013-08-16 14:40:00,
2013-08-16 10:45:00,64.8,58.1,30.06,WSW,257,3.0,-999.0,79,0.00,,,0.00,Wunderground v.1.15,2013-08-16 14:45:00,
2013-08-16 10:50:00,64.5,58.2,30.07,WSW,256,4.0,-999.0,80,0.00,,,0.00,Wunderground v.1.15,2013-08-16 14:50:00,
2013-08-16 10:55:00,64.3,58.0,30.07,WSW,256,4.0,-999.0,80,0.00,,,0.00,Wunderground v.1.15,2013-08-16 14:55:00,
2013-08-16 11:00:00,64.3,58.0,30.07,WSW,256,3.0,-999.0,80,0.00,,,0.00,Wunderground v.1.15,2013-08-16 15:00:00,
2013-08-16 11:10:00,64.3,58.0,30.07,WSW,256,3.0,-999.0,80,0.00,,,0.00,Wunderground v.1.15,2013-08-16 15:10:00,
2013-08-16 11:15:00,64.7,58.4,30.07,WSW,254,3.0,-999.0,80,0.00,,,0.00,Wunderground v.1.15,2013-08-16 15:15:00,
2013-08-16 11:20:00,64.7,58.4,30.07,WSW,254,3.0,-999.0,80,0.00,,,0.00,Wunderground v.1.15,2013-08-16 15:20:00,
2013-08-16 11:25:00,65.0,58.7,30.07,WSW,247,3.0,-999.0,80,0.00,,,0.00,Wunderground v.1.15,2013-08-16 15:25:00,
2013-08-16 11:30:00,65.5,59.2,30.07,South,171,4.0,-999.0,80,0.00,,,0.00,Wunderground v.1.15,2013-08-16 15:30:00,
2013-08-16 11:35:00,65.8,58.0,30.06,South,169,5.0,-999.0,76,0.00,,,0.00,Wunderground v.1.15,2013-08-16 15:35:00,
2013-08-16 11:45:00,65.9,57.4,30.07,South,169,2.0,-999.0,74,0.00,,,0.00,Wunderground v.1.15,2013-08-16 15:45:00,
2013-08-16 11:50:00,66.1,57.9,30.07,South,169,1.0,-999.0,75,0.00,,,0.00,Wunderground v.1.15,2013-08-16 15:50:00,
2013-08-16 11:55:00,65.9,57.4,30.07,South,169,2.0,-999.0,74,0.00,,,0.00,Wunderground v.1.15,2013-08-16 15:55:00,
2013-08-16 12:00:00,65.7,57.2,30.07,South,169,3.0,-999.0,74,0.00,,,0.00,Wunderground v.1.15,2013-08-16 16:00:00,
2013-08-16 12:10:00,65.5,57.0,30.07,South,169,2.0,-999.0,74,0.00,,,0.00,Wunderground v.1.15,2013-08-16 16:10:00,
2013-08-16 12:20:00,65.7,56.8,30.07,South,169,3.0,-999.0,73,0.00,,,0.00,Wunderground v.1.15,2013-08-16 16:20:00,
2013-08-16 12:25:00,66.3,56.6,30.06,South,169,3.0,-999.0,71,0.00,,,0.00,Wunderground v.1.15,2013-08-16 16:25:00,
2013-08-16 12:30:00,66.8,56.7,30.06,South,169,2.0,-999.0,70,0.00,,,0.00,Wunderground v.1.15,2013-08-16 16:30:00,
2013-08-16 12:35:00,67.4,56.1,30.06,South,169,2.0,-999.0,67,0.00,,,0.00,Wunderground v.1.15,2013-08-16 16:35:00,
2013-08-16 12:40:00,67.8,55.6,30.06,South,169,2.0,-999.0,65,0.00,,,0.00,Wunderground v.1.15,2013-08-16 16:40:00,
2013-08-16 12:50:00,68.8,55.2,30.06,South,171,1.0,-999.0,62,0.00,,,0.00,Wunderground v.1.15,2013-08-16 16:50:00,
2013-08-16 12:55:00,69.6,54.2,30.06,South,171,2.0,-999.0,58,0.00,,,0.00,Wunderground v.1.15,2013-08-16 16:55:00,
2013-08-16 13:00:00,70.2,56.6,30.06,South,171,1.0,-999.0,62,0.00,,,0.00,Wunderground v.1.15,2013-08-16 17:00:00,
2013-08-16 13:10:00,69.4,55.8,30.06,ESE,108,3.0,-999.0,62,0.00,,,0.00,Wunderground v.1.15,2013-08-16 17:10:00,
2013-08-16 13:15:00,68.9,56.2,30.06,ESE,108,3.0,-999.0,64,0.00,,,0.00,Wunderground v.1.15,2013-08-16 17:15:00,
2013-08-16 13:25:00,68.9,56.6,30.06,ENE,74,3.0,-999.0,65,0.00,,,0.00,Wunderground v.1.15,2013-08-16 17:25:00,
2013-08-16 13:30:00,69.1,56.8,30.05,ENE,74,2.0,-999.0,65,0.00,,,0.00,Wunderground v.1.15,2013-08-16 17:30:00,
2013-08-16 13:35:00,69.0,56.3,30.05,ENE,74,2.0,-999.0,64,0.00,,,0.00,Wunderground v.1.15,2013-08-16 17:35:00,
2013-08-16 13:40:00,69.1,56.4,30.05,ENE,74,1.0,-999.0,64,0.00,,,0.00,Wunderground v.1.15,2013-08-16 17:40:00,
2013-08-16 13:45:00,69.2,56.5,30.06,ENE,74,1.0,-999.0,64,0.00,,,0.00,Wunderground v.1.15,2013-08-16 17:45:00,
2013-08-16 13:55:00,70.1,56.0,30.05,ENE,74,1.0,-999.0,61,0.00,,,0.00,Wunderground v.1.15,2013-08-16 17:55:00,
2013-08-16 14:00:00,70.4,55.8,30.06,ENE,76,2.0,-999.0,60,0.00,,,0.00,Wunderground v.1.15,2013-08-16 18:00:00,
2013-08-16 14:10:00,70.2,55.7,30.05,ENE,76,1.0,-999.0,60,0.00,,,0.00,Wunderground v.1.15,2013-08-16 18:10:00,
2013-08-16 14:15:00,70.3,55.8,30.05,ENE,76,1.0,-999.0,60,0.00,,,0.00,Wunderground v.1.15,2013-08-16 18:15:00,
2013-08-16 14:20:00,70.8,55.8,30.05,NE,53,2.0,-999.0,59,0.00,,,0.00,Wunderground v.1.15,2013-08-16 18:20:00,
2013-08-16 14:25:00,71.2,54.7,30.05,NE,53,2.0,-999.0,56,0.00,,,0.00,Wunderground v.1.15,2013-08-16 18:25:00,
2013-08-16 14:30:00,71.1,55.1,30.05,NE,53,2.0,-999.0,57,0.00,,,0.00,Wunderground v.1.15,2013-08-16 18:30:00,
2013-08-16 14:35:00,71.3,55.8,30.05,NE,53,1.0,-999.0,58,0.00,,,0.00,Wunderground v.1.15,2013-08-16 18:35:00,
2013-08-16 14:40:00,72.1,55.5,30.05,NE,53,1.0,-999.0,56,0.00,,,0.00,Wunderground v.1.15,2013-08-16 18:40:00,
2013-08-16 14:50:00,72.9,54.8,30.05,NE,53,1.0,-999.0,53,0.00,,,0.00,Wunderground v.1.15,2013-08-16 18:50:00,
2013-08-16 14:55:00,73.1,54.9,30.05,NE,53,1.0,-999.0,53,0.00,,,0.00,Wunderground v.1.15,2013-08-16 18:55:00,
2013-08-16 15:00:00,72.8,56.7,30.05,NE,53,1.0,-999.0,57,0.00,,,0.00,Wunderground v.1.15,2013-08-16 19:00:00,
2013-08-16 15:10:00,71.3,56.2,30.05,NE,53,1.0,-999.0,59,0.00,,,0.00,Wunderground v.1.15,2013-08-16 19:10:00,
2013-08-16 15:15:00,71.4,56.8,30.05,NE,53,0.0,-999.0,60,0.00,,,0.00,Wunderground v.1.15,2013-08-16 19:15:00,
2013-08-16 15:25:00,71.6,55.1,30.05,NE,53,1.0,-999.0,56,0.00,,,0.00,Wunderground v.1.15,2013-08-16 19:25:00,
2013-08-16 15:30:00,71.5,55.5,30.05,NE,53,1.0,-999.0,57,0.00,,,0.00,Wunderground v.1.15,2013-08-16 19:30:00,
2013-08-16 15:35:00,71.0,55.0,30.05,NE,53,2.0,-999.0,57,0.00,,,0.00,Wunderground v.1.15,2013-08-16 19:35:00,
2013-08-16 15:40:00,70.9,54.4,30.04,NE,53,1.0,-999.0,56,0.00,,,0.00,Wunderground v.1.15,2013-08-16 19:40:00,
2013-08-16 15:45:00,71.0,54.5,30.04,NE,53,0.0,-999.0,56,0.00,,,0.00,Wunderground v.1.15,2013-08-16 19:45:00,
2013-08-16 15:50:00,71.5,55.0,30.04,NE,53,0.0,-999.0,56,0.00,,,0.00,Wunderground v.1.15,2013-08-16 19:50:00,
2013-08-16 15:55:00,71.9,54.9,30.04,NE,53,0.0,-999.0,55,0.00,,,0.00,Wunderground v.1.15,2013-08-16 19:55:00,
2013-08-16 16:00:00,72.4,55.8,30.04,NE,53,0.0,-999.0,56,0.00,,,0.00,Wunderground v.1.15,2013-08-16 20:00:00,
2013-08-16 16:10:00,72.5,56.4,30.04,NE,53,1.0,-999.0,57,0.00,,,0.00,Wunderground v.1.15,2013-08-16 20:10:00,
2013-08-16 16:15:00,71.9,56.8,30.04,NE,53,1.0,-999.0,59,0.00,,,0.00,Wunderground v.1.15,2013-08-16 20:15:00,
2013-08-16 16:20:00,71.6,56.5,30.05,NE,53,2.0,-999.0,59,0.00,,,0.00,Wunderground v.1.15,2013-08-16 20:20:00,
2013-08-16 16:25:00,71.6,56.5,30.04,NE,53,1.0,-999.0,59,0.00,,,0.00,Wunderground v.1.15,2013-08-16 20:25:00,
2013-08-16 16:35:00,71.3,56.2,30.04,NE,53,1.0,-999.0,59,0.00,,,0.00,Wunderground v.1.15,2013-08-16 20:35:00,
2013-08-16 16:40:00,71.0,56.4,30.05,NE,53,1.0,-999.0,60,0.00,,,0.00,Wunderground v.1.15,2013-08-16 20:40:00,
2013-08-16 16:45:00,70.9,55.9,30.04,NE,53,1.0,-999.0,59,0.00,,,0.00,Wunderground v.1.15,2013-08-16 20:45:00,
2013-08-16 16:50:00,70.9,55.9,30.04,NE,53,0.0,-999.0,59,0.00,,,0.00,Wunderground v.1.15,2013-08-16 20:50:00,
2013-08-16 16:55:00,70.9,55.9,30.04,NE,53,0.0,-999.0,59,0.00,,,0.00,Wunderground v.1.15,2013-08-16 20:55:00,
2013-08-16 17:00:00,70.8,55.8,30.04,NE,53,1.0,-999.0,59,0.00,,,0.00,Wunderground v.1.15,2013-08-16 21:00:00,
2013-08-16 17:10:00,70.7,56.6,30.04,NE,53,0.0,-999.0,61,0.00,,,0.00,Wunderground v.1.15,2013-08-16 21:10:00,
2013-08-16 17:15:00,70.5,56.4,30.05,NE,53,0.0,-999.0,61,0.00,,,0.00,Wunderground v.1.15,2013-08-16 21:15:00,
2013-08-16 17:20:00,70.3,56.2,30.05,NE,53,0.0,-999.0,61,0.00,,,0.00,Wunderground v.1.15,2013-08-16 21:20:00,
2013-08-16 17:25:00,70.4,56.3,30.05,NE,53,0.0,-999.0,61,0.00,,,0.00,Wunderground v.1.15,2013-08-16 21:25:00,
2013-08-16 17:30:00,70.3,56.2,30.05,NE,53,0.0,-999.0,61,0.00,,,0.00,Wunderground v.1.15,2013-08-16 21:30:00,
2013-08-16 17:40:00,70.4,56.3,30.05,NE,53,0.0,-999.0,61,0.00,,,0.00,Wunderground v.1.15,2013-08-16 21:40:00,
2013-08-16 17:45:00,70.5,55.9,30.05,NE,53,0.0,-999.0,60,0.00,,,0.00,Wunderground v.1.15,2013-08-16 21:45:00,
2013-08-16 17:50:00,70.6,56.0,30.05,NE,53,0.0,-999.0,60,0.00,,,0.00,Wunderground v.1.15,2013-08-16 21:50:00,
2013-08-16 17:55:00,70.9,56.3,30.05,NE,53,0.0,-999.0,60,0.00,,,0.00,Wunderground v.1.15,2013-08-16 21:55:00,
2013-08-16 18:00:00,71.0,56.4,30.05,NE,53,0.0,-999.0,60,0.00,,,0.00,Wunderground v.1.15,2013-08-16 22:00:00,
2013-08-16 18:10:00,71.1,56.5,30.05,NE,53,0.0,-999.0,60,0.00,,,0.00,Wunderground v.1.15,2013-08-16 22:10:00,
2013-08-16 18:15:00,71.2,56.6,30.05,NE,53,0.0,-999.0,60,0.00,,,0.00,Wunderground v.1.15,2013-08-16 22:15:00,
2013-08-16 18:20:00,71.1,56.5,30.05,NE,53,1.0,-999.0,60,0.00,,,0.00,Wunderground v.1.15,2013-08-16 22:20:00,
2013-08-16 18:25:00,71.0,56.9,30.05,NE,53,1.0,-999.0,61,0.00,,,0.00,Wunderground v.1.15,2013-08-16 22:25:00,
2013-08-16 18:30:00,71.0,57.3,30.05,NE,53,1.0,-999.0,62,0.00,,,0.00,Wunderground v.1.15,2013-08-16 22:30:00,
2013-08-16 18:40:00,71.2,56.1,30.06,NE,53,0.0,-999.0,59,0.00,,,0.00,Wunderground v.1.15,2013-08-16 22:40:00,
2013-08-16 18:45:00,71.4,56.3,30.05,NE,53,0.0,-999.0,59,0.00,,,0.00,Wunderground v.1.15,2013-08-16 22:45:00,
2013-08-16 18:50:00,71.5,57.8,30.06,NE,53,0.0,-999.0,62,0.00,,,0.00,Wunderground v.1.15,2013-08-16 22:50:00,
2013-08-16 18:55:00,71.2,56.6,30.06,NE,53,0.0,-999.0,60,0.00,,,0.00,Wunderground v.1.15,2013-08-16 22:55:00,
2013-08-16 19:00:00,71.0,56.9,30.06,NE,53,0.0,-999.0,61,0.00,,,0.00,Wunderground v.1.15,2013-08-16 23:00:00,
2013-08-16 19:05:00,70.8,56.7,30.06,NE,53,0.0,-999.0,61,0.00,,,0.00,Wunderground v.1.15,2013-08-16 23:05:00,
2013-08-16 19:15:00,70.7,57.9,30.06,NE,53,0.0,-999.0,64,0.00,,,0.00,Wunderground v.1.15,2013-08-16 23:15:00,
2013-08-16 19:25:00,70.3,57.5,30.06,NE,53,0.0,-999.0,64,0.00,,,0.00,Wunderground v.1.15,2013-08-16 23:25:00,
2013-08-16 19:30:00,70.1,57.4,30.06,NE,53,0.0,-999.0,64,0.00,,,0.00,Wunderground v.1.15,2013-08-16 23:30:00,
2013-08-16 19:35:00,69.8,57.9,30.06,NE,53,0.0,-999.0,66,0.00,,,0.00,Wunderground v.1.15,2013-08-16 23:35:00,
2013-08-16 19:40:00,69.4,57.5,30.06,NE,53,0.0,-999.0,66,0.00,,,0.00,Wunderground v.1.15,2013-08-16 23:40:00,
2013-08-16 19:45:00,68.9,57.5,30.07,NE,53,0.0,-999.0,67,0.00,,,0.00,Wunderground v.1.15,2013-08-16 23:45:00,
2013-08-16 19:55:00,68.2,57.2,30.06,NE,53,0.0,-999.0,68,0.00,,,0.00,Wunderground v.1.15,2013-08-16 23:55:00,
2013-08-16 20:00:00,68.0,57.0,30.06,NE,53,0.0,-999.0,68,0.00,,,0.00,Wunderground v.1.15,2013-08-17 00:00:00,
2013-08-16 20:10:00,67.4,56.5,30.06,NE,53,0.0,-999.0,68,0.00,,,0.00,Wunderground v.1.15,2013-08-17 00:10:00,
2013-08-16 20:15:00,67.4,56.5,30.06,NE,53,0.0,-999.0,68,0.00,,,0.00,Wunderground v.1.15,2013-08-17 00:15:00,
2013-08-16 20:20:00,67.0,56.9,30.07,NE,53,0.0,-999.0,70,0.00,,,0.00,Wunderground v.1.15,2013-08-17 00:20:00,
2013-08-16 20:25:00,66.5,56.4,30.07,NE,53,0.0,-999.0,70,0.00,,,0.00,Wunderground v.1.15,2013-08-17 00:25:00,
2013-08-16 20:30:00,66.7,56.2,30.07,NE,53,0.0,-999.0,69,0.00,,,0.00,Wunderground v.1.15,2013-08-17 00:30:00,
2013-08-16 20:35:00,67.1,56.2,30.07,NE,53,0.0,-999.0,68,0.00,,,0.00,Wunderground v.1.15,2013-08-17 00:35:00,
2013-08-16 20:40:00,67.1,56.6,30.07,NE,53,0.0,-999.0,69,0.00,,,0.00,Wunderground v.1.15,2013-08-17 00:40:00,
2013-08-16 20:45:00,66.9,56.8,30.07,NE,53,0.0,-999.0,70,0.00,,,0.00,Wunderground v.1.15,2013-08-17 00:45:00,
2013-08-16 20:50:00,66.5,56.8,30.07,NE,53,0.0,-999.0,71,0.00,,,0.00,Wunderground v.1.15,2013-08-17 00:50:00,
2013-08-16 21:00:00,66.1,56.8,30.07,NE,53,0.0,-999.0,72,0.00,,,0.00,Wunderground v.1.15,2013-08-17 01:00:00,
2013-08-16 21:10:00,66.3,56.6,30.08,NE,53,0.0,-999.0,71,0.00,,,0.00,Wunderground v.1.15,2013-08-17 01:10:00,
2013-08-16 21:15:00,66.4,56.7,30.08,NE,53,0.0,-999.0,71,0.00,,,0.00,Wunderground v.1.15,2013-08-17 01:15:00,
2013-08-16 21:20:00,66.0,57.1,30.08,NE,53,0.0,-999.0,73,0.00,,,0.00,Wunderground v.1.15,2013-08-17 01:20:00,
2013-08-16 21:25:00,65.0,56.5,30.08,NE,53,0.0,-999.0,74,0.00,,,0.00,Wunderground v.1.15,2013-08-17 01:25:00,
2013-08-16 21:35:00,64.1,56.7,30.08,NE,53,0.0,-999.0,77,0.00,,,0.00,Wunderground v.1.15,2013-08-17 01:35:00,
2013-08-16 21:40:00,64.6,56.5,30.08,NE,53,0.0,-999.0,75,0.00,,,0.00,Wunderground v.1.15,2013-08-17 01:40:00,
2013-08-16 21:45:00,65.1,56.6,30.08,NE,53,0.0,-999.0,74,0.00,,,0.00,Wunderground v.1.15,2013-08-17 01:45:00,
2013-08-16 21:50:00,64.4,56.7,30.08,NE,53,0.0,-999.0,76,0.00,,,0.00,Wunderground v.1.15,2013-08-17 01:50:00,
2013-08-16 21:55:00,63.8,56.8,30.08,NE,53,0.0,-999.0,78,0.00,,,0.00,Wunderground v.1.15,2013-08-17 01:55:00,
2013-08-16 22:00:00,63.9,56.5,30.08,NE,53,1.0,-999.0,77,0.00,,,0.00,Wunderground v.1.15,2013-08-17 02:00:00,
2013-08-16 22:10:00,65.1,56.6,30.08,NE,53,2.0,-999.0,74,0.00,,,0.00,Wunderground v.1.15,2013-08-17 02:10:00,
2013-08-16 22:20:00,64.6,56.1,30.08,NE,53,2.0,-999.0,74,0.00,,,0.00,Wunderground v.1.15,2013-08-17 02:20:00,
2013-08-16 22:25:00,64.3,56.2,30.08,NE,53,2.0,-999.0,75,0.00,,,0.00,Wunderground v.1.15,2013-08-17 02:25:00,
2013-08-16 22:30:00,64.5,56.4,30.08,NE,53,3.0,-999.0,75,0.00,,,0.00,Wunderground v.1.15,2013-08-17 02:30:00,
2013-08-16 22:35:00,65.2,56.3,30.08,NE,53,3.0,-999.0,73,0.00,,,0.00,Wunderground v.1.15,2013-08-17 02:35:00,
2013-08-16 22:40:00,65.3,56.4,30.08,NE,53,2.0,-999.0,73,0.00,,,0.00,Wunderground v.1.15,2013-08-17 02:40:00,
2013-08-16 22:45:00,65.2,56.3,30.08,NE,53,2.0,-999.0,73,0.00,,,0.00,Wunderground v.1.15,2013-08-17 02:45:00,
2013-08-16 22:50:00,65.0,56.5,30.08,NE,53,2.0,-999.0,74,0.00,,,0.00,Wunderground v.1.15,2013-08-17 02:50:00,
2013-08-16 22:55:00,65.1,56.6,30.08,NE,53,3.0,-999.0,74,0.00,,,0.00,Wunderground v.1.15,2013-08-17 02:55:00,
2013-08-16 23:00:00,65.1,56.2,30.08,NE,53,2.0,-999.0,73,0.00,,,0.00,Wunderground v.1.15,2013-08-17 03:00:00,
2013-08-16 23:10:00,64.0,56.6,30.08,NE,53,3.0,-999.0,77,0.00,,,0.00,Wunderground v.1.15,2013-08-17 03:10:00,
2013-08-16 23:15:00,63.3,56.3,30.08,NE,53,3.0,-999.0,78,0.00,,,0.00,Wunderground v.1.15,2013-08-17 03:15:00,
2013-08-16 23:20:00,62.8,56.2,30.08,NE,53,3.0,-999.0,79,0.00,,,0.00,Wunderground v.1.15,2013-08-17 03:20:00,
2013-08-16 23:25:00,63.2,55.9,30.08,NE,53,3.0,-999.0,77,0.00,,,0.00,Wunderground v.1.15,2013-08-17 03:25:00,
2013-08-16 23:30:00,64.2,56.1,30.08,NE,53,3.0,-999.0,75,0.00,,,0.00,Wunderground v.1.15,2013-08-17 03:30:00,
2013-08-16 23:40:00,65.0,55.8,30.09,NE,53,3.0,-999.0,72,0.00,,,0.00,Wunderground v.1.15,2013-08-17 03:40:00,
2013-08-16 23:45:00,65.2,55.6,30.08,NE,53,3.0,-999.0,71,0.00,,,0.00,Wunderground v.1.15,2013-08-17 03:45:00,
2013-08-16 23:50:00,65.3,55.7,30.08,NE,53,3.0,-999.0,71,0.00,,,0.00,Wunderground v.1.15,2013-08-17 03:50:00,
2013-08-16 23:55:00,65.4,55.7,30.08,NE,53,2.0,-999.0,71,0.00,,,0.00,Wunderground v.1.15,2013-08-17 03:55:00,